Rome Ciampino, Italy

3:41 AM CET on February 11, 2016 (GMT +0100)
Ciampino

Weather History for LIRA - July, 2012

Change the Weather History Date:

Thursday, July 12, 2012

  Actual Average Record
Temperature  
Mean Temperature 79 °F -  
Max Temperature 89 °F 87 °F 96 °F (2011)
Min Temperature 69 °F 63 °F 57 °F (2007)
Cooling Degree Days 14    
Growing Degree Days 29 (Base 50)    
Moisture  
Dew Point 67 °F    
Average Humidity 66    
Maximum Humidity 89    
Minimum Humidity 45    
Precipitation  
Precipitation 0.00 in 0.04 in - ()
Sea Level Pressure  
Sea Level Pressure 29.94 in    
Wind  
Wind Speed 4 mph ()    
Max Wind Speed 12 mph    
Max Gust Speed -    
Visibility 6.2 miles    
Events Thunderstorm    
Averages and records for this station are not official NWS values.
T = Trace of Precipitation, MM = Missing Value Source: Averaged Metar Reports

Daily Weather History Graph

Daily Weather History Graph

Search for Another Location

Airport or City:

Trip Planner

Search our weather history database for the weather conditions in past years. The results will help you decide how hot, cold, wet, or windy it might be!

Date:

Astronomy

Jul. 12, 2012 Rise Set
Actual Time 5:45 AM CEST 8:44 PM CEST
Civil Twilight 5:12 AM CEST 9:17 PM CEST
Nautical Twilight 4:30 AM CEST 10:00 PM CEST
Astronomical Twilight 3:40 AM CEST 10:49 PM CEST
Moon 12:43 AM CEST (7/12) 2:59 PM CEST (7/12)
Length of Visible Light 16h 05m
Length of Day
14h 58m
Last Quarter, 37% of the Moon is Illuminated
Jul 12
Last Quarter
Jul 19
New
Jul 26
First Quarter
Aug 2
Full
Aug 9
Last Quarter

Hourly Weather History & Observations

Time (CEST) Temp. Heat Index Dew Point Humidity Pressure Visibility Wind Dir Wind Speed Gust Speed Precip Events Conditions
12:15 AM 73.4 °F - 69.8 °F 88% 29.98 in - ESE 1.2 mph - N/A   Clear
12:45 AM 71.6 °F - 68.0 °F 88% 29.98 in - East 4.6 mph - N/A   Clear
1:15 AM 69.8 °F - 66.2 °F 88% 29.98 in - East 6.9 mph - N/A   Clear
1:45 AM 71.6 °F - 62.6 °F 73% 29.95 in - East 4.6 mph - N/A   Clear
2:15 AM 71.6 °F - 60.8 °F 69% 29.95 in - East 3.5 mph - N/A   Clear
2:45 AM 71.6 °F - 59.0 °F 64% 29.95 in - East 1.2 mph - N/A   Clear
3:15 AM 71.6 °F - 57.2 °F 60% 29.92 in - ESE 4.6 mph - N/A   Clear
3:45 AM 71.6 °F - 55.4 °F 57% 29.92 in - SE 2.3 mph - N/A   Clear
4:15 AM 71.6 °F - 55.4 °F 57% 29.92 in - SSE 4.6 mph - N/A   Clear
4:45 AM 71.6 °F - 57.2 °F 60% 29.92 in - Calm Calm - N/A   Clear
5:15 AM 69.8 °F - 59.0 °F 68% 29.92 in - West 1.2 mph - N/A   Clear
5:45 AM 69.8 °F - 60.8 °F 73% 29.95 in - SSE 4.6 mph - N/A   Clear
6:15 AM 73.4 °F - 68.0 °F 83% 29.95 in - SSE 5.8 mph - N/A   Clear
6:45 AM 73.4 °F - 66.2 °F 78% 29.95 in - SSE 5.8 mph - N/A   Clear
7:15 AM 77.0 °F - 69.8 °F 78% 29.95 in - SE 5.8 mph - N/A   Clear
7:45 AM 77.0 °F - 71.6 °F 83% 29.95 in - SSE 4.6 mph - N/A   Clear
8:15 AM 78.8 °F - 66.2 °F 65% 29.95 in 6.2 mi North 3.5 mph - N/A   Partly Cloudy
8:45 AM 80.6 °F 83.9 °F 69.8 °F 70% 29.95 in 6.2 mi NNE 2.3 mph - N/A   Partly Cloudy
9:15 AM 82.4 °F 86.3 °F 69.8 °F 66% 29.95 in 6.2 mi East 1.2 mph - N/A   Scattered Clouds
9:45 AM 80.6 °F 81.8 °F 62.6 °F 54% 29.95 in 6.2 mi SSE 4.6 mph - N/A   Scattered Clouds
10:15 AM 84.2 °F 84.4 °F 60.8 °F 45% 29.95 in 6.2 mi South 2.3 mph - N/A   Scattered Clouds
10:45 AM 82.4 °F 82.9 °F 60.8 °F 48% 29.95 in 6.2 mi South 5.8 mph - N/A   Scattered Clouds
11:15 AM 86.0 °F 88.2 °F 66.2 °F 51% 29.95 in 6.2 mi South 5.8 mph - N/A   Scattered Clouds
11:20 AM - - - N/A% - 6.2 mi SSW 6.9 mph - N/A Thunderstorm Thunderstorm
11:45 AM 82.4 °F 83.9 °F 64.4 °F 54% 29.95 in 6.2 mi SSW 4.6 mph - N/A Thunderstorm Thunderstorm
12:15 PM 84.2 °F 85.6 °F 64.4 °F 51% 29.95 in 6.2 mi SSE 8.1 mph - N/A   Scattered Clouds
12:45 PM 86.0 °F 89.4 °F 68.0 °F 55% 29.95 in 6.2 mi North 2.3 mph - N/A   Scattered Clouds
1:15 PM 87.8 °F 92.6 °F 69.8 °F 55% 29.95 in 6.2 mi South 4.6 mph - N/A   Scattered Clouds
1:45 PM 87.8 °F 92.6 °F 69.8 °F 55% 29.92 in 6.2 mi SSW 8.1 mph - N/A   Scattered Clouds
2:15 PM 87.8 °F 93.8 °F 71.6 °F 58% 29.92 in 6.2 mi SW 9.2 mph - N/A   Scattered Clouds
2:45 PM 87.8 °F 92.6 °F 69.8 °F 55% 29.92 in 6.2 mi SW 5.8 mph - N/A   Scattered Clouds
3:15 PM 87.8 °F 92.6 °F 69.8 °F 55% 29.92 in 6.2 mi SSW 8.1 mph - N/A   Scattered Clouds
3:45 PM 89.6 °F 94.7 °F 69.8 °F 52% 29.92 in 6.2 mi WSW 9.2 mph - N/A   Partly Cloudy
4:15 PM 87.8 °F 92.6 °F 69.8 °F 55% 29.92 in 6.2 mi SSW 11.5 mph - N/A   Partly Cloudy
4:45 PM 86.0 °F 89.4 °F 68.0 °F 55% 29.92 in 6.2 mi South 10.4 mph - N/A   Partly Cloudy
5:15 PM 86.0 °F 89.4 °F 68.0 °F 55% 29.92 in 6.2 mi SSW 11.5 mph - N/A   Partly Cloudy
5:45 PM 87.8 °F 92.6 °F 69.8 °F 55% 29.92 in 6.2 mi South 9.2 mph - N/A   Partly Cloudy
6:15 PM 87.8 °F 91.4 °F 68.0 °F 52% 29.92 in 6.2 mi SW 9.2 mph - N/A   Partly Cloudy
6:45 PM 86.0 °F 89.4 °F 68.0 °F 55% 29.92 in - SW 8.1 mph - N/A   Clear
7:15 PM 86.0 °F 89.4 °F 68.0 °F 55% 29.92 in - WSW 6.9 mph - N/A   Clear
7:45 PM 84.2 °F 87.3 °F 68.0 °F 58% 29.92 in - SW 8.1 mph - N/A   Clear
8:15 PM 82.4 °F 88.2 °F 73.4 °F 74% 29.92 in - SW 8.1 mph - N/A   Clear
8:45 PM 80.6 °F 86.2 °F 75.2 °F 84% 29.92 in - SW 6.9 mph - N/A   Clear
9:15 PM 78.8 °F - 75.2 °F 89% 29.95 in 6.2 mi SSW 5.8 mph - N/A   Partly Cloudy
9:45 PM 77.0 °F - 73.4 °F 89% 29.95 in 6.2 mi South 6.9 mph - N/A   Partly Cloudy
10:15 PM 77.0 °F - 73.4 °F 89% 29.95 in - SSE 6.9 mph - N/A   Clear
10:45 PM 77.0 °F - 73.4 °F 89% 29.95 in - South 4.6 mph - N/A   Clear
11:15 PM 75.2 °F - 69.8 °F 83% 29.95 in - SSE 3.5 mph - N/A   Clear
11:45 PM 75.2 °F - 68.0 °F 78% 29.95 in - ESE 3.5 mph - N/A   Clear